QPF
0.09 0.13 0.18 0.12 0.09 0.09 0.08 0.06 0.06 0.09 0.10 0.10 0.08 0.07 0.05 0.04 0.05 0.07 0.07 0.05 0.04 0.05 0.04 0.04 0.04 0.03 0.04 0.04 0.04 0.04 0.04 0.04 0.06 0.07 0.07 0.05 0.07 0.10 0.07 0.04 0.04 0.05 0.03
0.07 0.11 0.14 0.12 0.08 0.07 0.07 0.07 0.06 0.06 0.09 0.12 0.11 0.08 0.05 0.04 0.04 0.05 0.05 0.05 0.06 0.05 0.03 0.03 0.03 0.03 0.03 0.04 0.03 0.04 0.05 0.05 0.06 0.08 0.10 0.07 0.08 0.13 0.06 0.04 0.05 0.05 0.03
0.06 0.09 0.10 0.09 0.08 0.06 0.06 0.05 0.04 0.04 0.08 0.12 0.11 0.07 0.04 0.02 0.02 0.04 0.05 0.06 0.06 0.05 0.05 0.04 0.04 0.03 0.04 0.04 0.03 0.04 0.05 0.05 0.06 0.07 0.10 0.10 0.10 0.10 0.06 0.04 0.05 0.04 0.02
0.04 0.08 0.08 0.07 0.07 0.06 0.05 0.05 0.04 0.04 0.08 0.13 0.11 0.06 0.04 0.03 0.02 0.03 0.03 0.04 0.04 0.04 0.05 0.03 0.03 0.04 0.04 0.03 0.02 0.04 0.05 0.06 0.07 0.07 0.07 0.07 0.07 0.07 0.07 0.06 0.05 0.05 0.03
0.03 0.06 0.07 0.06 0.06 0.06 0.05 0.04 0.04 0.03 0.05 0.14 0.13 0.06 0.04 0.04 0.03 0.03 0.03 0.02 0.02 0.03 0.03 0.02 0.03 0.03 0.03 0.03 0.02 0.02 0.03 0.04 0.04 0.05 0.07 0.05 0.05 0.05 0.05 0.05 0.05 0.03 0.04
0.02 0.05 0.06 0.05 0.05 0.05 0.04 0.04 0.04 0.04 0.04 0.12 0.16 0.08 0.06 0.05 0.04 0.03 0.03 0.03 0.02 0.03 0.04 0.04 0.03 0.03 0.03 0.03 0.03 0.02 0.02 0.03 0.03 0.04 0.06 0.04 0.04 0.04 0.05 0.04 0.04 0.03 0.03
0.02 0.04 0.05 0.04 0.05 0.05 0.04 0.03 0.03 0.03 0.03 0.10 0.16 0.09 0.07 0.06 0.05 0.03 0.03 0.02 0.02 0.04 0.04 0.04 0.04 0.02 0.02 0.03 0.04 0.04 0.03 0.04 0.03 0.03 0.04 0.03 0.03 0.03 0.03 0.04 0.04 0.04 0.03
0.03 0.05 0.06 0.04 0.04 0.05 0.05 0.04 0.03 0.04 0.03 0.06 0.13 0.08 0.05 0.05 0.04 0.04 0.03 0.03 0.02 0.02 0.03 0.03 0.03 0.02 0.02 0.02 0.03 0.04 0.03 0.03 0.02 0.03 0.03 0.02 0.02 0.02 0.03 0.03 0.04 0.04 0.02
0.04 0.05 0.08 0.06 0.04 0.05 0.05 0.04 0.03 0.03 0.04 0.07 0.12 0.08 0.03 0.03 0.03 0.03 0.04 0.03 0.03 0.04 0.04 0.03 0.03 0.03 0.02 0.02 0.03 0.03 0.04 0.03 0.01 0.02 0.02 0.03 0.02 0.02 0.04 0.03 0.03 0.03 0.02
0.05 0.05 0.06 0.07 0.05 0.04 0.05 0.05 0.04 0.04 0.05 0.07 0.10 0.09 0.03 0.04 0.04 0.04 0.05 0.07 0.07 0.08 0.08 0.06 0.04 0.04 0.03 0.03 0.03 0.04 0.04 0.02 0.01 0.02 0.04 0.04 0.03 0.03 0.03 0.03 0.02 0.03 0.02
0.05 0.05 0.04 0.05 0.03 0.04 0.05 0.07 0.07 0.05 0.06 0.06 0.08 0.08 0.05 0.06 0.04 0.05 0.05 0.09 0.09 0.09 0.09 0.08 0.07 0.06 0.05 0.05 0.05 0.04 0.03 0.02 0.01 0.03 0.04 0.03 0.03 0.03 0.03 0.03 0.02 0.02 0.02
0.07 0.05 0.03 0.03 0.03 0.04 0.05 0.06 0.07 0.06 0.06 0.09 0.09 0.08 0.07 0.07 0.06 0.04 0.05 0.07 0.09 0.08 0.07 0.07 0.07 0.06 0.06 0.06 0.05 0.04 0.03 0.01 0.01 0.02 0.02 0.02 0.03 0.04 0.04 0.03 0.03 0.02 0.03
0.06 0.04 0.03 0.03 0.03 0.06 0.06 0.05 0.06 0.10 0.09 0.09 0.09 0.07 0.08 0.07 0.06 0.05 0.06 0.07 0.09 0.07 0.06 0.05 0.06 0.05 0.07 0.09 0.07 0.04 0.04 0.02 0.01 0.02 0.02 0.01 0.03 0.02 0.03 0.03 0.03 0.03 0.03
0.04 0.03 0.04 0.03 0.03 0.04 0.06 0.06 0.09 0.12 0.09 0.08 0.06 0.06 0.05 0.08 0.08 0.06 0.08 0.09 0.09 0.08 0.08 0.06 0.06 0.05 0.07 0.06 0.05 0.05 0.04 0.03 0.04 0.04 0.05 0.02 0.03 0.02 0.02 0.03 0.03 0.04 0.04
0.02 0.02 0.01 0.01 0.02 0.03 0.05 0.08 0.14 0.12 0.08 0.05 0.06 0.06 0.05 0.07 0.07 0.05 0.07 0.08 0.07 0.07 0.06 0.06 0.05 0.05 0.06 0.04 0.03 0.03 0.04 0.05 0.05 0.04 0.04 0.03 0.02 0.03 0.02 0.03 0.03 0.04 0.04
0.01 0.01 0.00 0.01 0.01 0.02 0.04 0.08 0.12 0.11 0.06 0.05 0.06 0.06 0.06 0.06 0.08 0.07 0.06 0.08 0.08 0.07 0.06 0.05 0.05 0.06 0.07 0.06 0.05 0.04 0.04 0.04 0.03 0.02 0.03 0.03 0.03 0.03 0.03 0.03 0.04 0.05 0.05
0.01 0.01 0.00 0.00 0.01 0.02 0.03 0.04 0.05 0.06 0.06 0.06 0.04 0.04 0.06 0.07 0.07 0.07 0.07 0.07 0.07 0.06 0.06 0.05 0.04 0.05 0.06 0.06 0.06 0.04 0.03 0.03 0.02 0.02 0.03 0.03 0.03 0.03 0.02 0.03 0.04 0.05 0.06
0.01 0.00 0.00 0.00 0.01 0.02 0.03 0.02 0.02 0.03 0.04 0.04 0.06 0.05 0.07 0.07 0.07 0.07 0.07 0.06 0.06 0.06 0.06 0.08 0.07 0.06 0.07 0.07 0.05 0.03 0.02 0.02 0.01 0.02 0.02 0.03 0.04 0.03 0.03 0.04 0.04 0.05 0.05
0.00 0.00 0.01 0.01 0.01 0.02 0.03 0.03 0.02 0.02 0.04 0.05 0.06 0.05 0.05 0.06 0.06 0.08 0.08 0.06 0.04 0.06 0.06 0.05 0.06 0.07 0.08 0.06 0.02 0.02 0.01 0.01 0.01 0.01 0.03 0.04 0.05 0.05 0.06 0.05 0.04 0.06 0.07
0.01 0.01 0.01 0.01 0.01 0.02 0.02 0.04 0.03 0.02 0.03 0.05 0.05 0.06 0.07 0.06 0.07 0.08 0.08 0.05 0.03 0.05 0.07 0.06 0.08 0.08 0.07 0.06 0.02 0.02 0.01 0.01 0.01 0.02 0.03 0.04 0.04 0.04 0.06 0.05 0.06 0.07 0.05
0.02 0.02 0.01 0.01 0.02 0.02 0.03 0.04 0.04 0.04 0.05 0.05 0.06 0.05 0.08 0.07 0.08 0.10 0.08 0.07 0.04 0.04 0.06 0.05 0.06 0.07 0.05 0.03 0.04 0.03 0.01 0.00 0.01 0.01 0.02 0.03 0.03 0.03 0.05 0.05 0.05 0.05 0.05
0.02 0.02 0.02 0.01 0.01 0.02 0.03 0.03 0.03 0.04 0.05 0.04 0.04 0.08 0.10 0.11 0.11 0.12 0.10 0.08 0.05 0.04 0.05 0.04 0.05 0.05 0.04 0.03 0.04 0.04 0.03 0.02 0.01 0.01 0.02 0.02 0.02 0.02 0.01 0.03 0.04 0.06 0.06
0.01 0.02 0.02 0.02 0.03 0.03 0.02 0.02 0.02 0.03 0.04 0.04 0.04 0.05 0.07 0.12 0.12 0.15 0.13 0.09 0.07 0.04 0.05 0.05 0.05 0.05 0.06 0.05 0.04 0.05 0.05 0.05 0.04 0.02 0.01 0.02 0.02 0.01 0.01 0.02 0.02 0.04 0.04
0.01 0.02 0.03 0.03 0.03 0.03 0.03 0.02 0.02 0.03 0.04 0.04 0.04 0.04 0.05 0.08 0.13 0.14 0.14 0.11 0.08 0.05 0.04 0.04 0.04 0.04 0.05 0.05 0.05 0.06 0.05 0.08 0.08 0.06 0.03 0.02 0.02 0.01 0.01 0.01 0.02 0.03 0.02
0.03 0.03 0.02 0.02 0.02 0.02 0.02 0.02 0.02 0.01 0.02 0.03 0.03 0.04 0.04 0.04 0.07 0.11 0.14 0.13 0.11 0.06 0.04 0.05 0.06 0.05 0.05 0.05 0.05 0.06 0.07 0.07 0.07 0.07 0.06 0.05 0.03 0.01 0.00 0.00 0.01 0.01 0.01
0.03 0.02 0.02 0.01 0.01 0.01 0.02 0.01 0.02 0.02 0.03 0.04 0.04 0.04 0.03 0.03 0.03 0.03 0.05 0.08 0.07 0.06 0.05 0.05 0.06 0.06 0.06 0.06 0.05 0.06 0.07 0.07 0.06 0.06 0.06 0.06 0.06 0.03 0.01 0.01 0.01 0.00 0.01
MSLP
1011.23 1010.97 1010.84 1010.88 1011.07 1011.38 1011.73 1012.08 1012.37 1012.58 1012.71 1012.81 1012.90 1013.03 1013.22 1013.48 1013.79 1014.12 1014.43 1014.71 1014.93 1015.10 1015.22 1015.33 1015.42 1015.52 1015.62 1015.70 1015.77 1015.80 1015.81 1015.80 1015.80 1015.82 1015.88 1015.97 1016.09 1016.23 1016.37 1016.49 1016.60 1016.68 1016.77
1011.12 1010.97 1010.96 1011.10 1011.38 1011.74 1012.12 1012.46 1012.73 1012.91 1013.01 1013.09 1013.19 1013.34 1013.56 1013.86 1014.19 1014.53 1014.84 1015.08 1015.26 1015.38 1015.45 1015.52 1015.58 1015.66 1015.73 1015.80 1015.84 1015.85 1015.84 1015.81 1015.78 1015.80 1015.86 1015.97 1016.12 1016.30 1016.48 1016.63 1016.76 1016.87 1016.96
1011.02 1010.97 1011.06 1011.30 1011.64 1012.05 1012.45 1012.79 1013.04 1013.20 1013.29 1013.35 1013.45 1013.61 1013.84 1014.14 1014.46 1014.78 1015.05 1015.25 1015.38 1015.46 1015.51 1015.56 1015.63 1015.71 1015.80 1015.87 1015.91 1015.90 1015.85 1015.79 1015.73 1015.72 1015.78 1015.90 1016.07 1016.29 1016.50 1016.70 1016.87 1017.00 1017.12
1010.97 1011.00 1011.18 1011.48 1011.88 1012.32 1012.74 1013.08 1013.32 1013.47 1013.55 1013.62 1013.72 1013.87 1014.10 1014.37 1014.66 1014.92 1015.14 1015.28 1015.37 1015.43 1015.48 1015.55 1015.64 1015.76 1015.88 1015.97 1016.00 1015.97 1015.89 1015.78 1015.69 1015.64 1015.67 1015.79 1015.98 1016.22 1016.47 1016.71 1016.92 1017.10 1017.24
1010.98 1011.09 1011.33 1011.68 1012.12 1012.58 1013.00 1013.34 1013.58 1013.73 1013.82 1013.89 1014.00 1014.15 1014.36 1014.60 1014.84 1015.05 1015.20 1015.30 1015.35 1015.39 1015.46 1015.56 1015.70 1015.86 1016.02 1016.12 1016.15 1016.10 1015.97 1015.81 1015.66 1015.57 1015.57 1015.67 1015.86 1016.12 1016.40 1016.68 1016.93 1017.14 1017.33
1011.08 1011.23 1011.51 1011.90 1012.36 1012.82 1013.24 1013.58 1013.82 1013.97 1014.08 1014.17 1014.29 1014.45 1014.65 1014.87 1015.07 1015.22 1015.32 1015.37 1015.40 1015.44 1015.52 1015.65 1015.83 1016.04 1016.22 1016.33 1016.35 1016.27 1016.09 1015.88 1015.67 1015.53 1015.49 1015.57 1015.75 1016.01 1016.32 1016.62 1016.90 1017.15 1017.36
1011.24 1011.43 1011.73 1012.13 1012.58 1013.04 1013.44 1013.77 1014.01 1014.17 1014.30 1014.42 1014.57 1014.75 1014.95 1015.16 1015.33 1015.46 1015.52 1015.54 1015.54 1015.58 1015.67 1015.83 1016.04 1016.26 1016.45 1016.56 1016.56 1016.43 1016.21 1015.94 1015.68 1015.50 1015.43 1015.48 1015.65 1015.91 1016.22 1016.54 1016.83 1017.09 1017.33
1011.43 1011.64 1011.95 1012.35 1012.78 1013.20 1013.58 1013.89 1014.11 1014.28 1014.43 1014.58 1014.77 1014.98 1015.21 1015.42 1015.59 1015.70 1015.74 1015.74 1015.74 1015.77 1015.87 1016.03 1016.25 1016.47 1016.65 1016.73 1016.69 1016.52 1016.26 1015.95 1015.66 1015.45 1015.35 1015.40 1015.56 1015.82 1016.12 1016.44 1016.73 1016.99 1017.23
1011.63 1011.85 1012.15 1012.52 1012.92 1013.31 1013.64 1013.91 1014.12 1014.28 1014.44 1014.62 1014.84 1015.09 1015.35 1015.59 1015.77 1015.88 1015.92 1015.92 1015.91 1015.93 1016.02 1016.17 1016.37 1016.57 1016.72 1016.77 1016.69 1016.49 1016.19 1015.86 1015.55 1015.33 1015.25 1015.30 1015.47 1015.72 1016.02 1016.32 1016.60 1016.85 1017.07
1011.79 1012.00 1012.29 1012.64 1013.00 1013.34 1013.62 1013.84 1014.02 1014.16 1014.32 1014.51 1014.76 1015.04 1015.33 1015.59 1015.79 1015.92 1015.97 1015.96 1015.95 1015.97 1016.04 1016.17 1016.34 1016.51 1016.62 1016.63 1016.52 1016.29 1015.98 1015.64 1015.35 1015.15 1015.08 1015.16 1015.34 1015.60 1015.90 1016.18 1016.44 1016.66 1016.87
1011.88 1012.08 1012.35 1012.67 1013.00 1013.29 1013.53 1013.70 1013.83 1013.95 1014.09 1014.28 1014.53 1014.82 1015.13 1015.41 1015.63 1015.77 1015.83 1015.83 1015.82 1015.83 1015.88 1015.99 1016.13 1016.26 1016.33 1016.31 1016.18 1015.94 1015.64 1015.32 1015.05 1014.89 1014.86 1014.96 1015.17 1015.45 1015.74 1016.02 1016.26 1016.46 1016.64
1011.87 1012.06 1012.33 1012.63 1012.93 1013.19 1013.38 1013.52 1013.60 1013.68 1013.79 1013.96 1014.20 1014.49 1014.79 1015.08 1015.30 1015.45 1015.52 1015.53 1015.52 1015.52 1015.56 1015.65 1015.76 1015.86 1015.91 1015.87 1015.73 1015.50 1015.21 1014.92 1014.69 1014.57 1014.57 1014.71 1014.95 1015.24 1015.54 1015.82 1016.05 1016.23 1016.39
1011.75 1011.95 1012.22 1012.52 1012.81 1013.05 1013.22 1013.32 1013.37 1013.42 1013.49 1013.63 1013.83 1014.09 1014.38 1014.65 1014.87 1015.02 1015.09 1015.11 1015.10 1015.10 1015.14 1015.21 1015.31 1015.39 1015.43 1015.38 1015.24 1015.02 1014.75 1014.49 1014.29 1014.19 1014.23 1014.39 1014.64 1014.95 1015.26 1015.54 1015.77 1015.96 1016.11
1011.56 1011.76 1012.03 1012.34 1012.63 1012.87 1013.04 1013.13 1013.17 1013.19 1013.23 1013.33 1013.50 1013.72 1013.97 1014.22 1014.42 1014.56 1014.63 1014.65 1014.65 1014.65 1014.69 1014.76 1014.85 1014.92 1014.95 1014.91 1014.77 1014.56 1014.31 1014.06 1013.87 1013.79 1013.83 1013.99 1014.24 1014.55 1014.87 1015.16 1015.41 1015.61 1015.78
1011.29 1011.50 1011.79 1012.11 1012.42 1012.68 1012.86 1012.96 1013.00 1013.02 1013.04 1013.11 1013.24 1013.42 1013.63 1013.83 1014.01 1014.13 1014.20 1014.22 1014.23 1014.24 1014.28 1014.35 1014.44 1014.51 1014.54 1014.49 1014.36 1014.15 1013.90 1013.65 1013.45 1013.35 1013.37 1013.50 1013.73 1014.03 1014.35 1014.65 1014.92 1015.15 1015.35
1011.01 1011.22 1011.51 1011.84 1012.17 1012.46 1012.67 1012.80 1012.86 1012.89 1012.91 1012.96 1013.05 1013.19 1013.36 1013.54 1013.68 1013.79 1013.85 1013.88 1013.89 1013.91 1013.95 1014.02 1014.10 1014.17 1014.19 1014.14 1014.00 1013.78 1013.52 1013.25 1013.02 1012.87 1012.84 1012.93 1013.12 1013.38 1013.68 1013.99 1014.29 1014.55 1014.80
1010.75 1010.95 1011.23 1011.57 1011.91 1012.21 1012.45 1012.62 1012.72 1012.77 1012.80 1012.85 1012.92 1013.03 1013.17 1013.31 1013.43 1013.53 1013.58 1013.61 1013.62 1013.65 1013.69 1013.75 1013.81 1013.87 1013.87 1013.80 1013.65 1013.42 1013.14 1012.84 1012.56 1012.36 1012.27 1012.28 1012.41 1012.63 1012.91 1013.22 1013.53 1013.83 1014.12
1010.55 1010.73 1010.99 1011.30 1011.63 1011.95 1012.21 1012.41 1012.54 1012.63 1012.68 1012.73 1012.80 1012.89 1013.01 1013.12 1013.22 1013.31 1013.36 1013.39 1013.40 1013.42 1013.45 1013.49 1013.53 1013.56 1013.54 1013.45 1013.28 1013.03 1012.73 1012.39 1012.08 1011.83 1011.67 1011.62 1011.68 1011.85 1012.09 1012.38 1012.69 1013.02 1013.35
1010.44 1010.59 1010.80 1011.08 1011.38 1011.68 1011.96 1012.18 1012.34 1012.46 1012.54 1012.60 1012.67 1012.74 1012.84 1012.93 1013.02 1013.10 1013.15 1013.17 1013.19 1013.20 1013.21 1013.22 1013.23 1013.22 1013.17 1013.05 1012.86 1012.60 1012.29 1011.94 1011.60 1011.31 1011.10 1011.00 1011.00 1011.10 1011.29 1011.55 1011.86 1012.19 1012.53
1010.43 1010.54 1010.70 1010.92 1011.18 1011.46 1011.72 1011.95 1012.14 1012.28 1012.38 1012.45 1012.51 1012.58 1012.66 1012.74 1012.82 1012.88 1012.93 1012.96 1012.97 1012.96 1012.95 1012.93 1012.90 1012.85 1012.76 1012.62 1012.42 1012.16 1011.85 1011.51 1011.18 1010.87 1010.64 1010.49 1010.44 1010.49 1010.62 1010.84 1011.11 1011.42 1011.75
1010.50 1010.58 1010.69 1010.85 1011.06 1011.30 1011.55 1011.78 1011.98 1012.13 1012.24 1012.32 1012.38 1012.44 1012.50 1012.56 1012.63 1012.69 1012.73 1012.76 1012.77 1012.75 1012.72 1012.66 1012.59 1012.50 1012.38 1012.21 1012.01 1011.76 1011.48 1011.17 1010.86 1010.58 1010.34 1010.16 1010.07 1010.07 1010.15 1010.30 1010.52 1010.79 1011.09
1010.62 1010.69 1010.76 1010.87 1011.04 1011.24 1011.47 1011.70 1011.90 1012.07 1012.19 1012.28 1012.33 1012.37 1012.41 1012.45 1012.50 1012.55 1012.60 1012.62 1012.63 1012.60 1012.55 1012.47 1012.37 1012.24 1012.08 1011.91 1011.71 1011.49 1011.24 1010.98 1010.72 1010.46 1010.24 1010.06 1009.94 1009.88 1009.90 1009.98 1010.13 1010.34 1010.58
1010.74 1010.82 1010.88 1010.97 1011.11 1011.29 1011.51 1011.74 1011.96 1012.14 1012.27 1012.36 1012.40 1012.42 1012.44 1012.45 1012.49 1012.53 1012.57 1012.60 1012.60 1012.58 1012.51 1012.41 1012.28 1012.13 1011.95 1011.77 1011.58 1011.38 1011.18 1010.97 1010.76 1010.55 1010.35 1010.17 1010.02 1009.91 1009.86 1009.87 1009.94 1010.07 1010.25
1010.82 1010.93 1011.02 1011.11 1011.24 1011.43 1011.66 1011.90 1012.14 1012.35 1012.49 1012.58 1012.62 1012.62 1012.61 1012.60 1012.61 1012.64 1012.67 1012.71 1012.72 1012.70 1012.63 1012.53 1012.38 1012.21 1012.02 1011.83 1011.65 1011.47 1011.31 1011.15 1010.98 1010.81 1010.62 1010.44 1010.26 1010.10 1009.98 1009.90 1009.89 1009.94 1010.05
1010.82 1011.00 1011.12 1011.25 1011.40 1011.61 1011.86 1012.14 1012.41 1012.64 1012.81 1012.91 1012.95 1012.93 1012.90 1012.87 1012.86 1012.87 1012.90 1012.93 1012.96 1012.94 1012.89 1012.78 1012.63 1012.45 1012.25 1012.06 1011.88 1011.72 1011.58 1011.45 1011.32 1011.16 1010.99 1010.79 1010.57 1010.36 1010.16 1010.01 1009.91 1009.89 1009.93
1010.73 1010.99 1011.17 1011.34 1011.53 1011.77 1012.06 1012.37 1012.68 1012.95 1013.15 1013.27 1013.32 1013.30 1013.25 1013.20 1013.17 1013.16 1013.19 1013.22 1013.26 1013.26 1013.21 1013.12 1012.97 1012.79 1012.59 1012.40 1012.22 1012.06 1011.93 1011.82 1011.69 1011.54 1011.36 1011.14 1010.89 1010.61 1010.35 1010.12 1009.95 1009.86 1009.85
Thickness
5785 5785 5780 5780 5779 5778 5777 5776 5775 5774 5773 5771 5770 5769 5769 5768 5767 5766 5766 5765 5765 5764 5763 5763 5762 5761 5761 5760 5760 5759 5758 5758 5756 5756 5755 5754 5754 5753 5752 5751 5751 5751 5748
5788 5784 5779 5778 5778 5777 5776 5774 5773 5772 5771 5770 5768 5767 5767 5767 5766 5766 5765 5764 5764 5763 5762 5761 5761 5760 5760 5759 5759 5758 5757 5756 5756 5755 5754 5754 5753 5752 5751 5750 5750 5750 5747
5788 5784 5779 5777 5776 5775 5774 5773 5772 5771 5769 5768 5767 5766 5766 5766 5765 5764 5764 5764 5763 5762 5761 5761 5760 5759 5759 5759 5758 5757 5757 5756 5755 5755 5755 5757 5753 5751 5749 5749 5748 5746 5745
5788 5783 5780 5775 5774 5773 5772 5771 5770 5769 5768 5767 5766 5765 5765 5764 5763 5763 5762 5762 5762 5761 5760 5760 5759 5758 5758 5758 5757 5756 5756 5755 5755 5755 5759 5759 5756 5750 5749 5747 5746 5745 5744
5786 5782 5777 5774 5772 5771 5770 5770 5769 5768 5767 5766 5764 5764 5763 5762 5762 5762 5761 5761 5760 5760 5759 5759 5759 5758 5757 5757 5757 5756 5755 5755 5755 5757 5759 5758 5755 5750 5748 5747 5745 5744 5743
5785 5782 5776 5773 5771 5770 5769 5768 5767 5766 5765 5764 5763 5762 5761 5761 5761 5760 5760 5760 5759 5759 5758 5758 5758 5757 5757 5756 5756 5755 5755 5755 5756 5761 5759 5757 5755 5749 5747 5746 5745 5744 5742
5785 5782 5776 5771 5770 5769 5768 5767 5766 5764 5764 5762 5761 5760 5760 5759 5759 5759 5759 5759 5758 5758 5758 5758 5757 5757 5756 5756 5755 5755 5755 5755 5759 5761 5759 5758 5753 5749 5747 5746 5745 5743 5742
5785 5781 5775 5770 5769 5768 5767 5766 5765 5764 5762 5762 5760 5760 5759 5759 5758 5758 5758 5758 5758 5757 5757 5757 5756 5756 5756 5755 5755 5755 5755 5755 5759 5761 5760 5758 5752 5749 5747 5746 5744 5743 5741
5784 5781 5777 5774 5770 5768 5766 5765 5764 5763 5762 5761 5760 5759 5759 5759 5758 5758 5758 5757 5757 5757 5757 5757 5756 5756 5755 5755 5755 5755 5755 5756 5761 5761 5760 5758 5752 5749 5747 5746 5744 5743 5741
5782 5780 5777 5776 5774 5772 5768 5765 5763 5762 5761 5760 5759 5758 5759 5759 5759 5758 5758 5757 5757 5757 5757 5757 5756 5756 5756 5756 5755 5755 5755 5757 5763 5762 5761 5756 5751 5749 5747 5746 5744 5743 5741
5779 5779 5779 5777 5775 5773 5771 5767 5765 5763 5762 5761 5760 5759 5760 5762 5762 5761 5759 5757 5757 5757 5757 5757 5757 5757 5757 5757 5756 5756 5757 5762 5764 5764 5760 5755 5751 5749 5748 5746 5744 5743 5741
5776 5778 5777 5777 5775 5774 5771 5768 5767 5767 5764 5764 5763 5762 5762 5762 5761 5761 5758 5758 5758 5758 5758 5758 5758 5758 5760 5761 5760 5758 5762 5764 5764 5764 5761 5755 5752 5750 5748 5747 5745 5743 5741
5779 5778 5778 5777 5774 5773 5771 5770 5768 5767 5765 5764 5762 5762 5761 5762 5762 5762 5762 5761 5760 5760 5762 5760 5762 5763 5764 5763 5763 5764 5763 5765 5765 5766 5762 5756 5753 5750 5749 5747 5745 5744 5742
5780 5778 5779 5777 5774 5771 5771 5770 5768 5767 5765 5765 5762 5762 5762 5762 5762 5762 5761 5762 5762 5762 5762 5763 5763 5763 5763 5763 5764 5764 5764 5765 5765 5765 5761 5757 5754 5752 5750 5748 5746 5745 5743
5780 5779 5779 5776 5773 5770 5769 5769 5769 5767 5767 5765 5763 5762 5762 5763 5763 5763 5762 5761 5763 5763 5763 5763 5764 5763 5763 5764 5765 5765 5765 5764 5765 5765 5763 5758 5755 5753 5751 5749 5747 5746 5744
5781 5780 5779 5776 5773 5771 5769 5768 5768 5768 5765 5766 5764 5763 5762 5763 5762 5762 5763 5761 5763 5762 5763 5763 5764 5763 5764 5764 5765 5765 5765 5766 5765 5763 5764 5760 5756 5754 5752 5750 5749 5747 5746
5783 5782 5779 5777 5775 5772 5771 5770 5769 5768 5768 5767 5766 5764 5763 5763 5762 5762 5764 5763 5763 5763 5762 5763 5764 5765 5765 5766 5766 5766 5767 5766 5767 5764 5764 5763 5761 5757 5754 5752 5750 5748 5747
5787 5783 5781 5781 5777 5774 5772 5770 5770 5770 5769 5768 5766 5765 5764 5763 5762 5762 5764 5765 5763 5764 5764 5764 5765 5765 5764 5765 5765 5767 5768 5767 5766 5765 5765 5764 5763 5762 5757 5754 5751 5749 5747
5790 5786 5782 5781 5778 5776 5773 5771 5771 5770 5769 5768 5767 5767 5766 5764 5763 5763 5764 5764 5764 5765 5765 5766 5766 5765 5764 5764 5767 5767 5769 5768 5767 5768 5767 5765 5764 5762 5761 5757 5753 5751 5749
5793 5789 5785 5783 5780 5777 5775 5773 5772 5771 5771 5770 5769 5768 5767 5766 5765 5764 5765 5764 5765 5766 5764 5764 5763 5763 5763 5764 5767 5767 5768 5769 5768 5768 5767 5767 5765 5764 5763 5760 5757 5754 5751
5795 5791 5788 5785 5782 5778 5776 5773 5771 5771 5771 5772 5771 5769 5768 5767 5767 5765 5767 5765 5765 5765 5763 5765 5764 5763 5763 5764 5763 5763 5767 5770 5770 5768 5768 5768 5767 5765 5763 5761 5759 5758 5755
5798 5794 5790 5786 5784 5781 5778 5776 5774 5773 5773 5773 5772 5770 5769 5769 5768 5768 5766 5767 5766 5764 5763 5763 5761 5762 5763 5763 5760 5758 5758 5762 5765 5771 5769 5767 5766 5766 5764 5763 5760 5757 5757
5801 5797 5794 5790 5786 5783 5781 5778 5776 5773 5772 5773 5772 5771 5771 5770 5769 5768 5767 5767 5766 5766 5765 5763 5762 5760 5759 5761 5762 5758 5753 5752 5759 5766 5767 5767 5765 5765 5765 5764 5762 5759 5756
5805 5802 5797 5792 5788 5785 5782 5779 5775 5772 5771 5772 5773 5773 5772 5770 5770 5770 5768 5767 5766 5768 5766 5765 5764 5762 5758 5758 5759 5759 5757 5756 5751 5754 5762 5766 5764 5763 5763 5764 5764 5760 5757
5809 5805 5800 5794 5789 5786 5783 5780 5776 5775 5775 5775 5774 5772 5771 5771 5770 5770 5769 5767 5766 5766 5765 5763 5762 5760 5760 5757 5757 5756 5755 5754 5753 5750 5750 5755 5760 5762 5762 5762 5762 5760 5757
5811 5806 5801 5794 5789 5787 5783 5781 5777 5774 5773 5772 5771 5771 5771 5772 5772 5770 5769 5767 5766 5766 5764 5762 5760 5759 5758 5756 5755 5755 5752 5750 5750 5750 5747 5749 5752 5757 5759 5760 5759 5758 5756